Weather reports worldwide

Advertisment
Loch Glascarnoch, United Kingdom (3031): temperature & dewpoint: 10.09.2019 16:00:00 - 16.09.2019 16:00:00 (BST)Loch Glascarnoch, United Kingdom (3031): temperature -20cm & temperature -100cm: 10.09.2019 16:00:00 - 16.09.2019 16:00:00 (BST)Loch Glascarnoch, United Kingdom (3031): wind speed & gusts: 10.09.2019 16:00:00 - 16.09.2019 16:00:00 (BST)Loch Glascarnoch, United Kingdom (3031): wind direction: 10.09.2019 16:00:00 - 16.09.2019 16:00:00 (BST)Loch Glascarnoch, United Kingdom (3031): reduced air pressure: 10.09.2019 16:00:00 - 16.09.2019 16:00:00 (BST)Loch Glascarnoch, United Kingdom (3031): visibility: 10.09.2019 16:00:00 - 16.09.2019 16:00:00 (BST)Loch Glascarnoch, United Kingdom (3031): sunshine duration: 10.09.2019 16:00:00 - 16.09.2019 16:00:00 (BST)Loch Glascarnoch, United Kingdom (3031): precipitation: 10.09.2019 16:00:00 - 16.09.2019 16:00:00 (BST)
Date & Time tt [°C] td [°C] tt -20cm [°C] tt -100cm [°C] ff [km/h] ff [kn] fx [km/h] fx [kn] dd ppp [hPa] vv [km] sd [min] rr [mm]
16.09.2019 16:00:00 10,6 6,7 - - 35 19 50 27 W 1019,4 45 24 0,0
16.09.2019 15:00:00 9,6 7,8 - - 29 16 59 32 W 1019,7 12 18 0,4
16.09.2019 14:00:00 12,2 7,3 - - 41 22 59 32 W 1019,3 24 24 0,0
16.09.2019 13:00:00 11,1 8,1 - - 41 22 57 31 W 1019,3 6 24 0,0
16.09.2019 12:00:00 11,7 7,2 - - 34 18 57 31 W 1019,1 30 18 0,2
16.09.2019 11:00:00 10,2 5,9 - - 37 20 50 27 W 1019,3 45 6 0,0
16.09.2019 10:00:00 9,1 6,3 11,2 11,4 29 16 48 26 W 1019,2 45 0 0,2
16.09.2019 09:00:00 8,1 7,1 - - 21 11 - - WNW 1019,2 45 0 0,2
16.09.2019 08:00:00 7,9 6,5 - - 16 9 - - WNW 1019,1 30 0 0,0
16.09.2019 07:00:00 7,9 4,9 - - 18 10 - - W 1019,0 45 0 0,0
16.09.2019 06:00:00 7,6 6,1 - - 11 6 - - WNW 1019,7 45 0 0,0
16.09.2019 05:00:00 7,7 5,1 - - 9 5 - - WNW 1020,0 50 0 0,0
16.09.2019 04:00:00 8,8 3,6 - - 22 12 52 28 W 1020,0 40 0 0,0
16.09.2019 03:00:00 8,6 4,0 - - 28 15 - - W 1020,4 35 0 0,0
16.09.2019 02:00:00 7,8 3,4 - - 22 12 - - W 1020,4 35 0 0,0
16.09.2019 01:00:00 7,9 3,9 - - 21 11 - - W 1020,7 35 - 0,0
16.09.2019 00:00:00 8,6 4,0 - - 24 13 - - W 1020,6 30 0 0,0
15.09.2019 23:00:00 7,4 5,1 - - 5 3 - - WNW 1021,2 29 0 0,0
15.09.2019 22:00:00 6,9 3,6 - - 9 5 - - WNW 1021,5 30 0 0,0
15.09.2019 21:00:00 8,1 3,9 - - 18 10 - - W 1021,0 30 0 0,0
15.09.2019 20:00:00 8,3 3,7 - - 16 9 - - W 1020,8 30 0 0,0
15.09.2019 19:00:00 8,8 3,3 - - 18 10 - - W 1020,7 35 6 0,0
15.09.2019 18:00:00 9,7 3,5 - - 28 15 - - W 1020,3 28 12 0,0
15.09.2019 17:00:00 10,0 4,5 - - 22 12 - - W 1020,4 20 6 0,0
15.09.2019 16:00:00 9,3 4,9 - - 29 16 - - WNW 1020,9 10 12 0,0
15.09.2019 15:00:00 10,7 3,9 - - 28 15 - - WNW 1020,3 17 18 0,0
15.09.2019 14:00:00 11,6 4,3 - - 29 16 48 26 W 1020,0 27 0 0,0
15.09.2019 13:00:00 10,8 3,5 - - 31 17 52 28 WNW 1019,9 15 6 0,0
15.09.2019 12:00:00 10,4 5,1 - - 35 19 61 33 WNW 1019,2 13 6 0,0
15.09.2019 11:00:00 10,9 3,6 - - 42 23 70 38 W 1017,9 18 36 0,0
15.09.2019 10:00:00 9,5 4,5 11,7 11,5 48 26 76 41 WNW 1017,3 13 0 0,0
15.09.2019 09:00:00 9,2 4,4 - - 46 25 68 37 WNW 1016,9 14 0 0,0
15.09.2019 08:00:00 9,0 3,7 - - 52 28 72 39 W 1016,7 14 0 0,0
15.09.2019 07:00:00 8,4 4,1 - - 37 20 63 34 WNW 1016,6 14 0 0,0
15.09.2019 06:00:00 8,8 3,2 - - 48 26 65 35 W 1016,5 14 0 0,0
15.09.2019 05:00:00 8,7 2,3 - - 50 27 70 38 W 1016,3 14 0 0,0
15.09.2019 04:00:00 9,1 4,0 - - 46 25 65 35 W 1016,1 11 0 0,0
15.09.2019 03:00:00 8,8 4,5 - - 48 26 80 43 W 1015,9 14 0 0,0
15.09.2019 02:00:00 9,5 4,5 - - 46 25 74 40 W 1014,6 14 0 0,0
15.09.2019 01:00:00 9,6 5,0 - - 54 29 80 43 W 1014,3 15 - 0,0
15.09.2019 00:00:00 9,7 5,1 - - 46 25 70 38 W 1014,3 15 0 0,2
14.09.2019 23:00:00 10,5 6,0 - - 46 25 74 40 W 1013,8 14 0 0,0
14.09.2019 22:00:00 10,5 5,6 - - 48 26 74 40 W 1014,4 16 0 0,0
14.09.2019 21:00:00 10,4 6,8 - - 44 24 67 36 W 1014,7 15 0 0,0
14.09.2019 20:00:00 10,1 6,8 - - 46 25 76 41 W 1013,8 8 0 1,6
14.09.2019 19:00:00 11,2 8,6 - - 55 30 78 42 W 1013,5 4,7 0 3,8
14.09.2019 18:00:00 13,1 11,1 - - 44 24 68 37 W 1012,4 3,0 0 2,6
14.09.2019 17:00:00 14,6 11,9 - - 48 26 85 46 W 1011,8 3,2 0 2,6
14.09.2019 16:00:00 14,5 12,0 - - 52 28 85 46 WSW 1012,1 4,7 0 2,0
14.09.2019 15:00:00 14,3 11,5 - - 59 32 85 46 W 1013,2 4,7 0 1,2
14.09.2019 14:00:00 14,4 11,7 - - 59 32 89 48 WSW 1014,0 2,9 0 0,2
14.09.2019 13:00:00 13,6 11,3 - - 41 22 80 43 WSW 1014,8 6 0 0,2
14.09.2019 12:00:00 13,5 11,1 - - 50 27 80 43 WSW 1015,9 4,1 0 0,0
14.09.2019 11:00:00 13,0 10,2 - - 57 31 89 48 SW 1018,0 21 0 0,0
14.09.2019 10:00:00 11,6 9,4 11,7 11,7 46 25 81 44 SW 1018,9 6 0 0,2
14.09.2019 09:00:00 11,2 8,3 - - 48 26 96 52 SW 1020,4 35 0 0,2
14.09.2019 08:00:00 10,1 7,3 - - 48 26 78 42 SSW 1020,6 15 0 0,2
14.09.2019 07:00:00 11,3 5,2 - - 52 28 81 44 SW 1020,9 50 0 0,0
14.09.2019 06:00:00 11,7 6,1 - - 24 13 46 25 SW 1023,3 40 0 0,0
14.09.2019 05:00:00 11,1 5,7 - - 18 10 - - SW 1026,0 40 0 0,0
14.09.2019 04:00:00 10,7 6,3 - - 22 12 50 27 SW 1027,3 30 0 0,0
14.09.2019 03:00:00 10,8 5,9 - - 34 18 57 31 SW 1028,5 26 0 0,0
14.09.2019 02:00:00 10,7 6,7 - - 34 18 55 30 SW 1029,6 35 0 0,2
14.09.2019 01:00:00 10,5 7,3 - - 18 10 - - WSW 1030,6 28 - 0,0
14.09.2019 00:00:00 11,0 6,7 - - 21 11 - - WSW 1031,0 29 0 0,0
13.09.2019 23:00:00 10,3 7,2 - - 18 10 - - W 1031,3 35 0 0,0
13.09.2019 22:00:00 10,3 7,5 - - 21 11 - - WSW 1031,6 6 0 0,2
13.09.2019 21:00:00 11,0 6,7 - - 21 11 - - WSW 1031,5 30 0 0,0
13.09.2019 20:00:00 10,7 7,6 - - 18 10 - - W 1031,3 45 0 0,0
13.09.2019 19:00:00 11,5 6,3 - - 28 15 - - WSW 1031,3 30 0 0,0
13.09.2019 18:00:00 11,3 7,2 - - 26 14 - - WSW 1031,5 11 0 0,0
13.09.2019 17:00:00 11,6 7,9 - - 22 12 54 29 WSW 1031,4 28 0 0,2
13.09.2019 16:00:00 12,2 6,3 - - 31 17 46 25 WSW 1031,0 18 18 0,0
13.09.2019 15:00:00 12,3 5,6 - - 29 16 63 34 W 1031,2 16 24 0,0
13.09.2019 14:00:00 11,9 6,5 - - 34 18 55 30 W 1031,3 17 18 0,2
13.09.2019 13:00:00 12,7 5,8 - - 37 20 59 32 W 1030,5 27 30 0,0
13.09.2019 12:00:00 13,0 7,3 - - 37 20 55 30 W 1029,9 30 42 0,0
13.09.2019 11:00:00 9,8 6,9 - - 41 22 61 33 W 1030,3 11 24 0,2
13.09.2019 10:00:00 11,2 6,6 11,9 11,7 39 21 59 32 W 1029,2 35 24 0,0
13.09.2019 09:00:00 10,2 5,3 - - 42 23 61 33 W 1028,8 19 0 0,0
13.09.2019 08:00:00 9,6 4,9 - - 34 18 55 30 W 1028,3 28 0 0,0
13.09.2019 07:00:00 9,1 4,9 - - 37 20 57 31 W 1027,7 22 0 0,0
13.09.2019 06:00:00 9,1 5,1 - - 41 22 55 30 W 1027,2 22 0 0,0
13.09.2019 05:00:00 8,7 5,1 - - 39 21 55 30 W 1026,7 25 0 0,0
13.09.2019 04:00:00 8,2 5,1 - - 31 17 - - W 1026,8 30 0 0,0
13.09.2019 03:00:00 8,0 6,3 - - 22 12 - - W 1026,6 28 0 0,4
13.09.2019 02:00:00 9,0 6,4 - - 28 15 - - W 1026,1 15 0 0,4
13.09.2019 01:00:00 7,6 6,6 - - 18 10 50 27 W 1025,9 5 - 2,2
13.09.2019 00:00:00 9,0 6,2 - - 34 18 52 28 W 1024,8 9 0 0,0
12.09.2019 23:00:00 7,9 5,3 - - 26 14 50 27 W 1024,5 50 0 1,4
12.09.2019 22:00:00 8,0 6,4 - - 16 9 - - W 1024,0 7 0 0,2
12.09.2019 21:00:00 9,5 5,6 - - 21 11 - - W 1023,3 21 0 0,0
12.09.2019 20:00:00 9,7 5,3 - - 21 11 - - W 1022,5 30 0 0,0
12.09.2019 19:00:00 10,6 5,8 - - 21 11 - - W 1021,8 30 0 0,0
12.09.2019 18:00:00 11,7 5,5 - - 29 16 48 26 W 1020,8 20 42 0,0
12.09.2019 17:00:00 12,7 6,3 - - 35 19 48 26 WNW 1019,8 35 54 0,0
12.09.2019 16:00:00 12,1 6,7 - - 24 13 46 25 WNW 1019,4 21 30 0,0
12.09.2019 15:00:00 13,7 8,0 - - 34 18 48 26 WNW 1018,2 40 24 0,0
12.09.2019 14:00:00 12,1 7,2 - - 34 18 48 26 W 1017,6 14 18 0,0
12.09.2019 13:00:00 12,3 7,1 - - 34 18 - - W 1016,8 45 0 0,0
12.09.2019 12:00:00 11,5 7,8 - - 29 16 - - W 1016,3 45 0 0,0
12.09.2019 11:00:00 12,1 7,8 - - 26 14 - - W 1015,3 50 0 0,2
12.09.2019 10:00:00 10,2 8,9 12,0 11,7 21 11 - - WNW 1015,2 12 0 0,0
12.09.2019 09:00:00 11,2 7,4 - - 21 11 - - W 1014,5 45 0 0,0
12.09.2019 08:00:00 10,0 7,4 - - 11 6 - - W 1014,0 45 0 0,0
12.09.2019 07:00:00 10,1 6,5 - - 22 12 - - W 1014,2 50 0 0,0
12.09.2019 06:00:00 9,7 7,4 - - 24 13 - - W 1013,9 18 0 0,0
12.09.2019 05:00:00 9,7 7,4 - - 24 13 - - W 1013,5 50 0 0,2
12.09.2019 04:00:00 9,8 8,4 - - 15 8 - - WNW 1013,7 50 0 0,2
12.09.2019 03:00:00 9,8 8,5 - - 15 8 - - WNW 1013,7 13 0 0,2
12.09.2019 02:00:00 11,0 7,5 - - 24 13 46 25 W 1013,6 50 0 0,0
12.09.2019 01:00:00 11,3 7,3 - - 24 13 - - W 1012,9 40 - 0,0
12.09.2019 00:00:00 10,9 6,6 - - 22 12 59 32 W 1012,7 50 0 0,0
11.09.2019 23:00:00 10,8 7,0 - - 39 21 59 32 W 1012,1 40 0 0,0
11.09.2019 22:00:00 10,7 7,8 - - 34 18 63 34 W 1011,7 45 0 0,0
11.09.2019 21:00:00 11,6 7,3 - - 35 19 55 30 W 1011,5 45 0 0,0
11.09.2019 20:00:00 11,8 7,7 - - 41 22 61 33 W 1010,7 50 0 0,0
11.09.2019 19:00:00 11,9 8,6 - - 41 22 57 31 W 1009,5 17 0 0,0
11.09.2019 18:00:00 12,8 8,1 - - 39 21 63 34 W 1008,7 40 24 0,0
11.09.2019 17:00:00 12,2 8,2 - - 54 29 72 39 W 1008,0 45 36 0,0
11.09.2019 16:00:00 13,2 8,5 - - 57 31 76 41 W 1006,9 35 48 0,0
11.09.2019 15:00:00 13,4 7,9 - - 54 29 74 40 W 1006,4 29 42 0,0
11.09.2019 14:00:00 12,6 10,0 - - 52 28 67 36 W 1005,7 35 18 0,2
11.09.2019 13:00:00 12,0 9,2 - - 44 24 70 38 W 1005,1 23 0 0,0
11.09.2019 12:00:00 12,7 8,8 - - 41 22 67 36 W 1004,2 11 12 0,0
11.09.2019 11:00:00 11,5 8,5 - - 34 18 63 34 W 1003,5 6 6 0,2
11.09.2019 10:00:00 11,7 7,7 12,2 11,9 39 21 67 36 W 1002,7 11 0 0,0
11.09.2019 09:00:00 11,5 7,1 - - 48 26 68 37 W 1001,9 10 0 0,0
11.09.2019 08:00:00 11,0 7,6 - - 29 16 70 38 W 1001,2 6 0 0,0
11.09.2019 07:00:00 10,9 8,2 - - 42 23 68 37 W 1000,1 40 0 1,6
11.09.2019 06:00:00 11,1 8,4 - - 41 22 65 35 W 999,6 18 0 0,4
11.09.2019 05:00:00 12,6 7,8 - - 41 22 61 33 WSW 998,9 30 0 0,4
11.09.2019 04:00:00 11,7 9,1 - - 29 16 65 35 W 999,2 5 0 0,0
11.09.2019 03:00:00 13,6 7,2 - - 34 18 81 44 W 999,1 45 0 0,0
11.09.2019 02:00:00 13,9 10,2 - - 50 27 72 39 W 998,4 35 0 0,8
11.09.2019 01:00:00 14,5 12,4 - - 48 26 70 38 WSW 998,1 12 - 0,0
11.09.2019 00:00:00 14,5 12,3 - - 48 26 83 45 WSW 998,4 5 0 0,0
10.09.2019 23:00:00 14,7 12,3 - - 44 24 83 45 SW 999,2 11 0 0,4
10.09.2019 22:00:00 14,6 11,9 - - 41 22 70 38 SW 1000,2 30 0 1,2
10.09.2019 21:00:00 13,9 11,6 - - 37 20 67 36 SSW 1001,4 8 0 3,2
10.09.2019 20:00:00 11,9 10,7 - - 13 7 - - E 1003,4 10 0 2,2
10.09.2019 19:00:00 10,8 9,3 - - 16 9 - - ESE 1005,3 13 0 1,4
10.09.2019 18:00:00 12,0 7,9 - - 15 8 - - ESE 1007,0 15 0 0,0
10.09.2019 17:00:00 12,5 6,1 - - 8 4 - - NE 1008,2 40 0 0,0
10.09.2019 16:00:00 12,9 6,2 - - 11 6 - - SSW 1010,2 30 0 0,0

tt = temperature
td = dewpoint
tt -20cm = temperature -20cm
tt -100cm = temperature -100cm
ff = wind speed
fx = gusts
dd = wind direction
ppp = reduced air pressure
vv = visibility
sd = sunshine duration
rr = precipitation

Next stations